This demonstration page uses our WeatherBlox Daily Observations layout. Learn more.

Left ArrowRight Arrow

Hourly Observations for January 19, 2017

Temp ( °F °C ) Dew Point ( °F °C ) Humidity (%) Winds ( mph kmh ) Pressure ( in mb ) Visibility ( mi km ) Precip ( " mm )
12:17 am 00:17 Cloudy with Rain 45 7.2 44 6.7 97 97 SW 3 6 29.71 1006 5 8 0.06 1.52
12:53 am 00:53 Cloudy with Light Rain 45 7.2 44 6.7 97 97 Calm 29.70 1006 6 10 0.13 3.30
1:00 am 01:00 Cloudy with Light Rain 45 7.2 44 6.7 97 97 SE 5 7 29.74 1007 8 13 0.01 0.25
1:20 am 01:20 Cloudy with Light Rain 45 7 45 7 100 100 ESE 5 7 29.74 1007 10 16 0.00 0.00
1:48 am 01:48 Cloudy 46 8 45 7 93 93 S 10 17 29.74 1007 10 16 0.00 0.00
1:53 am 01:53 Cloudy 47 8.3 45 7.2 93 93 S 12 19 29.71 1006 10 16 0.02 0.51
2:53 am 02:53 Cloudy 47 8.3 46 7.8 97 97 SSW 7 11 29.73 1007 10 16 0.00 0.00
3:53 am 03:53 Cloudy 46 7.8 45 7.2 96 96 Calm 29.74 1007 10 16 0.00 0.00
4:46 am 04:46 Cloudy 46 8 45 7 93 93 Calm 29.77 1008 10 16 0.00 0.00
4:53 am 04:53 Cloudy 46 7.8 45 7.2 96 96 Calm 29.74 1007 10 16 0.00 0.00
5:53 am 05:53 Cloudy 47 8.3 45 7.2 93 93 SW 6 9 29.74 1007 10 16 0.00 0.00
6:53 am 06:53 Cloudy 47 8.3 45 7.2 93 93 SSW 6 9 29.75 1008 10 16 0.00 0.00
7:53 am 07:53 Cloudy with Light Rain 46 7.8 44 6.7 93 93 SW 7 11 29.78 1008 7 11 0.00 0.00
8:30 am 08:30 Cloudy 46 8 45 7 93 93 Calm 29.80 1009 10 16 0.00 0.00
8:53 am 08:53 Cloudy 46 7.8 45 7.2 96 96 Calm 29.79 1009 10 16 0.04 1.02
9:53 am 09:53 Cloudy 47 8.3 44 6.7 90 90 SW 3 6 29.80 1009 10 16 0.00 0.00
10:53 am 10:53 Cloudy with Light Rain 47 8.3 44 6.7 90 90 S 8 13 29.81 1010 10 16 0.00 0.00
11:00 am 11:00 Cloudy with Light Rain 46 8 45 7 93 93 S 9 15 29.83 1010 10 16 0.00 0.00
11:24 am 11:24 Cloudy 46 8 45 7 93 93 S 8 13 29.83 1010 10 16 0.00 0.00
11:53 am 11:53 Cloudy 48 8.9 45 7.2 89 89 S 9 15 29.80 1009 10 16 0.00 0.00
12:24 pm 12:24 Cloudy 48 9 45 7 87 87 SSW 10 17 29.83 1010 10 16 0.00 0.00
12:53 pm 12:53 Cloudy 49 9.4 45 7.2 86 86 S 8 13 29.78 1008 10 16 0.00 0.00
1:53 pm 13:53 Cloudy 50 10 44 6.7 80 80 SSW 8 13 29.75 1008 10 16 0.00 0.00
2:28 pm 14:28 Partly Cloudy 52 11 45 7 77 77 SSW 7 11 29.77 1008 10 16 0.00 0.00
2:53 pm 14:53 Partly Cloudy 51 10.6 44 6.7 77 77 SSW 7 11 29.73 1007 10 16 0.00 0.00
3:00 pm 15:00 Mostly Cloudy 52 11 45 7 77 77 SSW 12 19 29.77 1008 10 16 0.00 0.00
3:53 pm 15:53 Mostly Cloudy 51 10.6 44 6.7 77 77 SW 7 11 29.72 1007 10 16 0.00 0.00
4:53 pm 16:53 Cloudy 51 10.6 45 7.2 80 80 SW 3 6 29.71 1006 10 16 0.00 0.00
5:53 pm 17:53 Cloudy 49 9.4 46 7.8 90 90 Calm 29.69 1005 10 16 0.06 1.52
6:53 pm 18:53 Cloudy with Rain 49 9.4 45 7.2 86 86 S 15 24 29.66 1004 3 5 0.08 2.03
7:06 pm 19:06 Cloudy with Light Rain 48 9 45 7 87 87 S 13 20 29.68 1005 6 10 0.00 0.00
7:53 pm 19:53 Mostly Cloudy 49 9.4 46 7.8 90 90 S 20 31 29.63 1003 10 16 0.07 1.78
8:53 pm 20:53 Mostly Cloudy 49 9.4 46 7.8 90 90 SSE 14 22 29.61 1003 10 16 0.00 0.00
9:53 pm 21:53 Cloudy 49 9.4 44 6.7 83 83 S 22 35 29.59 1002 10 16 0.00 0.00
10:53 pm 22:53 Cloudy with Light Rain 48 8.9 45 7.2 89 89 S 23 37 29.56 1001 9 14 0.00 0.00
11:15 pm 23:15 Cloudy with Light Rain 48 8.9 45 7.2 89 89 S 16 26 29.59 1002 9 14 0.00 0.00
11:30 pm 23:30 Cloudy with Light Rain 48 9 45 7 87 87 SSE 18 30 29.56 1001 10 16 0.00 0.00
11:53 pm 23:53 Cloudy with Light Rain 48 8.9 45 7.2 89 89 SSE 20 31 29.52 1000 10 16 0.01 0.25

Powered by AerisWeather